| time (UTC) | temp C | wind direction | speed KPH | gust KPH | rain 1hr cm | rain 24hr cm | rain mn cm | humidity % | barometer mb |
| 20260504214741 | 17 | 268 | 1.6 | 3.2 | 0.00 | 0.00 | 0.00 | 65 | 1002.7 |
| 20260504214240 | 17 | 271 | 0.0 | 3.2 | 0.00 | 0.00 | 0.00 | 65 | 1002.7 |
| 20260504213739 | 17 | 275 | 1.6 | 3.2 | 0.00 | 0.00 | 0.00 | 64 | 1002.6 |
| 20260504213238 | 17 | 278 | 0.0 | 3.2 | 0.00 | 0.00 | 0.00 | 63 | 1002.7 |
| 20260504212738 | 17 | 252 | 1.6 | 4.8 | 0.00 | 0.00 | 0.00 | 63 | 1002.7 |
| 20260504212237 | 18 | 258 | 0.0 | 3.2 | 0.00 | 0.00 | 0.00 | 62 | 1002.7 |
| 20260504211736 | 17 | 262 | 1.6 | 4.8 | 0.00 | 0.00 | 0.00 | 62 | 1002.7 |
| 20260504210734 | 18 | 258 | 0.0 | 1.6 | 0.00 | 0.00 | 0.00 | 61 | 1002.6 |
| 20260504210233 | 18 | 254 | 0.0 | 3.2 | 0.00 | 0.00 | 0.00 | 61 | 1002.5 |
| 20260504205732 | 18 | 253 | 0.0 | 0.0 | 0.00 | 0.00 | 0.00 | 61 | 1002.5 |
| 20260504205231 | 18 | 258 | 0.0 | 0.0 | 0.00 | 0.00 | 0.00 | 60 | 1002.5 |
| 20260504204730 | 18 | 257 | 0.0 | 3.2 | 0.00 | 0.00 | 0.00 | 59 | 1002.5 |
| 20260504204229 | 18 | 259 | 0.0 | 3.2 | 0.00 | 0.00 | 0.00 | 59 | 1002.6 |
| 20260504203728 | 18 | 261 | 0.0 | 0.0 | 0.00 | 0.00 | 0.00 | 58 | 1002.5 |
| 20260504203227 | 19 | 257 | 0.0 | 0.0 | 0.00 | 0.00 | 0.00 | 57 | 1002.5 |
| 20260504202726 | 19 | 262 | 0.0 | 3.2 | 0.00 | 0.00 | 0.00 | 57 | 1002.5 |
| 20260504202225 | 19 | 264 | 0.0 | 0.0 | 0.00 | 0.00 | 0.00 | 56 | 1002.5 |
| 20260504201724 | 19 | 263 | 0.0 | 0.0 | 0.00 | 0.00 | 0.00 | 56 | 1002.5 |
| 20260504201223 | 19 | 249 | 0.0 | 0.0 | 0.00 | 0.00 | 0.00 | 56 | 1002.5 |
| 20260504200722 | 19 | 271 | 0.0 | 0.0 | 0.00 | 0.00 | 0.00 | 56 | 1002.5 |
| 20260504200221 | 19 | 258 | 0.0 | 0.0 | 0.00 | 0.00 | 0.00 | 57 | 1002.5 |
| 20260504195720 | 18 | 258 | 0.0 | 0.0 | 0.00 | 0.00 | 0.00 | 58 | 1002.5 |
| 20260504195219 | 18 | 259 | 0.0 | 1.6 | 0.00 | 0.00 | 0.00 | 58 | 1002.5 |
| 20260504194718 | 18 | 263 | 0.0 | 1.6 | 0.00 | 0.00 | 0.00 | 60 | 1002.5 |
| 20260504194217 | 18 | 258 | 0.0 | 0.0 | 0.00 | 0.00 | 0.00 | 60 | 1002.5 |
| 20260504193716 | 18 | 259 | 0.0 | 0.0 | 0.00 | 0.00 | 0.00 | 59 | 1002.4 |
| 20260504193215 | 18 | 264 | 0.0 | 3.2 | 0.00 | 0.00 | 0.00 | 59 | 1002.5 |
| 20260504192715 | 18 | 263 | 0.0 | 0.0 | 0.00 | 0.00 | 0.00 | 60 | 1002.4 |
| 20260504192213 | 18 | 264 | 0.0 | 0.0 | 0.00 | 0.00 | 0.00 | 60 | 1002.5 |
| 20260504191713 | 18 | 260 | 0.0 | 0.0 | 0.00 | 0.00 | 0.00 | 60 | 1002.5 |
| 20260504191212 | 18 | 264 | 0.0 | 0.0 | 0.00 | 0.00 | 0.00 | 60 | 1002.4 |
| 20260504190711 | 18 | 264 | 0.0 | 0.0 | 0.00 | 0.00 | 0.00 | 59 | 1002.5 |
| 20260504190210 | 19 | 287 | 0.0 | 0.0 | 0.00 | 0.00 | 0.00 | 59 | 1002.5 |
| 20260504185709 | 19 | 275 | 0.0 | 0.0 | 0.00 | 0.00 | 0.00 | 58 | 1002.4 |
| 20260504185208 | 19 | 15 | 0.0 | 0.0 | 0.00 | 0.00 | 0.00 | 56 | 1002.4 |
| 20260504184707 | 19 | 281 | 0.0 | 0.0 | 0.00 | 0.00 | 0.00 | 58 | 1002.4 |
| 20260504184206 | 19 | 284 | 0.0 | 0.0 | 0.00 | 0.00 | 0.00 | 57 | 1002.3 |
| 20260504183705 | 19 | 274 | 0.0 | 0.0 | 0.00 | 0.00 | 0.00 | 56 | 1002.3 |
| 20260504183204 | 20 | 292 | 0.0 | 0.0 | 0.00 | 0.00 | 0.00 | 56 | 1002.3 |
| 20260504182703 | 20 | 262 | 0.0 | 0.0 | 0.00 | 0.00 | 0.00 | 55 | 1002.2 |
| 20260504182202 | 20 | 262 | 0.0 | 0.0 | 0.00 | 0.00 | 0.00 | 54 | 1002.2 |
| 20260504181701 | 20 | 262 | 0.0 | 0.0 | 0.00 | 0.00 | 0.00 | 54 | 1002.2 |
| 20260504181200 | 20 | 264 | 0.0 | 0.0 | 0.00 | 0.00 | 0.00 | 52 | 1002.1 |
| 20260504180659 | 21 | 264 | 0.0 | 0.0 | 0.00 | 0.00 | 0.00 | 51 | 1002.1 |
| 20260504180158 | 21 | 264 | 0.0 | 0.0 | 0.00 | 0.00 | 0.00 | 50 | 1002.1 |
| 20260504175657 | 21 | 260 | 0.0 | 0.0 | 0.00 | 0.00 | 0.00 | 49 | 1002.1 |
| 20260504175156 | 21 | 300 | 0.0 | 0.0 | 0.00 | 0.00 | 0.00 | 49 | 1002.1 |
| 20260504174655 | 21 | 264 | 0.0 | 0.0 | 0.00 | 0.00 | 0.00 | 48 | 1002.1 |
| 20260504174155 | 21 | 262 | 0.0 | 0.0 | 0.00 | 0.00 | 0.00 | 47 | 1002.1 |
| 20260504173654 | 22 | 281 | 0.0 | 3.2 | 0.00 | 0.00 | 0.00 | 46 | 1002.1 |
| 20260504173153 | 22 | 277 | 0.0 | 3.2 | 0.00 | 0.00 | 0.00 | 46 | 1002.1 |
| 20260504172651 | 22 | 270 | 0.0 | 1.6 | 0.00 | 0.00 | 0.00 | 46 | 1002.0 |
| 20260504172148 | 22 | 271 | 0.0 | 3.2 | 0.00 | 0.00 | 0.00 | 45 | 1002.1 |
| 20260504171647 | 22 | 248 | 3.2 | 4.8 | 0.00 | 0.00 | 0.00 | 45 | 1002.1 |
| 20260504171146 | 22 | 270 | 3.2 | 6.4 | 0.00 | 0.00 | 0.00 | 45 | 1002.1 |
| 20260504170645 | 22 | 246 | 1.6 | 8.0 | 0.00 | 0.00 | 0.00 | 44 | 1002.1 |
| 20260504170144 | 22 | 261 | 1.6 | 3.2 | 0.00 | 0.00 | 0.00 | 44 | 1002.1 |
| 20260504160132 | 22 | 342 | 3.2 | 6.4 | 0.00 | 0.00 | 0.00 | 43 | 1002.1 |
| 20260504151123 | 23 | 270 | 3.2 | 6.4 | 0.00 | 0.00 | 0.00 | 42 | 1002.2 |
| 20260504150622 | 23 | 270 | 3.2 | 4.8 | 0.00 | 0.00 | 0.00 | 42 | 1002.2 |
| 20260504150120 | 23 | 276 | 4.8 | 8.0 | 0.00 | 0.00 | 0.00 | 42 | 1002.3 |
| 20260504141112 | 23 | 284 | 3.2 | 6.4 | 0.00 | 0.00 | 0.00 | 40 | 1002.4 |
| 20260504140611 | 23 | 246 | 1.6 | 6.4 | 0.00 | 0.00 | 0.00 | 40 | 1002.5 |
| 20260504140110 | 23 | 264 | 3.2 | 9.7 | 0.00 | 0.00 | 0.00 | 40 | 1002.6 |
| 20260504130557 | 25 | 260 | 3.2 | 6.4 | 0.00 | 0.00 | 0.00 | 38 | 1002.8 |
| 20260504110537 | 23 | 0 | 3.2 | 6.4 | 0.00 | 0.00 | 0.00 | 40 | 1003.3 |
| 20260504100526 | 22 | 259 | 4.8 | 8.0 | 0.00 | 0.00 | 0.00 | 43 | 1003.8 |
| 20260504082008 | 21 | 282 | 3.2 | 4.8 | 0.00 | 0.00 | 0.00 | 46 | 1003.4 |
| 20260504081506 | 21 | 246 | 3.2 | 6.4 | 0.00 | 0.00 | 0.00 | 44 | 1003.2 |
| 20260504081005 | 21 | 254 | 1.6 | 6.4 | 0.00 | 0.00 | 0.00 | 44 | 1003.4 |
| 20260504080505 | 20 | 30 | 3.2 | 6.4 | 0.00 | 0.00 | 0.00 | 45 | 1003.5 |
| 20260504050430 | 15 | 282 | 1.6 | 4.8 | 0.00 | 0.00 | 0.00 | 51 | 1002.8 |
| 20260504045929 | 15 | 282 | 1.6 | 3.2 | 0.00 | 0.00 | 0.00 | 52 | 1002.8 |
| 20260504045428 | 15 | 258 | 0.0 | 3.2 | 0.00 | 0.00 | 0.00 | 52 | 1002.7 |
| 20260504044927 | 15 | 258 | 1.6 | 6.4 | 0.00 | 0.00 | 0.00 | 53 | 1002.5 |
| 20260504044427 | 14 | 294 | 1.6 | 4.8 | 0.00 | 0.00 | 0.00 | 54 | 1002.5 |
| 20260504043926 | 14 | 18 | 1.6 | 4.8 | 0.00 | 0.00 | 0.00 | 54 | 1002.5 |
| 20260504043425 | 14 | 24 | 0.0 | 0.0 | 0.00 | 0.00 | 0.00 | 55 | 1002.5 |
| 20260504042924 | 14 | 318 | 1.6 | 3.2 | 0.00 | 0.00 | 0.00 | 55 | 1002.5 |
| 20260504042423 | 13 | 54 | 1.6 | 3.2 | 0.00 | 0.00 | 0.00 | 55 | 1002.5 |
| 20260504041922 | 13 | 12 | 0.0 | 3.2 | 0.00 | 0.00 | 0.00 | 56 | 1002.5 |
| 20260504041421 | 13 | 18 | 0.0 | 3.2 | 0.00 | 0.00 | 0.00 | 56 | 1002.5 |
| 20260504040920 | 13 | 258 | 0.0 | 3.2 | 0.00 | 0.00 | 0.00 | 56 | 1002.3 |
| 20260504040419 | 13 | 108 | 1.6 | 3.2 | 0.00 | 0.00 | 0.00 | 56 | 1002.3 |
| 20260504035918 | 13 | 264 | 1.6 | 4.8 | 0.00 | 0.00 | 0.00 | 56 | 1002.3 |
| 20260504035417 | 13 | 64 | 0.0 | 3.2 | 0.00 | 0.00 | 0.00 | 58 | 1002.3 |
| 20260504034916 | 13 | 90 | 0.0 | 3.2 | 0.00 | 0.00 | 0.00 | 58 | 1002.3 |
| 20260504034415 | 13 | 48 | 0.0 | 1.6 | 0.00 | 0.00 | 0.00 | 58 | 1002.2 |
| 20260504033914 | 13 | 251 | 0.0 | 0.0 | 0.00 | 0.00 | 0.00 | 58 | 1002.1 |
| 20260504033414 | 13 | 240 | 0.0 | 3.2 | 0.00 | 0.00 | 0.00 | 56 | 1002.1 |
| 20260504032912 | 13 | 263 | 0.0 | 0.0 | 0.00 | 0.00 | 0.00 | 56 | 1002.1 |
| 20260504032412 | 13 | 288 | 0.0 | 3.2 | 0.00 | 0.00 | 0.00 | 56 | 1002.1 |
| 20260504031912 | 13 | 276 | 0.0 | 1.6 | 0.00 | 0.00 | 0.00 | 55 | 1002.0 |
| 20260504031410 | 13 | 348 | 0.0 | 0.0 | 0.00 | 0.00 | 0.00 | 55 | 1002.0 |
| 20260504030909 | 13 | 6 | 0.0 | 3.2 | 0.00 | 0.00 | 0.00 | 55 | 1002.1 |
| 20260504030408 | 13 | 60 | 0.0 | 0.0 | 0.00 | 0.00 | 0.00 | 54 | 1002.1 |
| 20260504025907 | 14 | 6 | 0.0 | 0.0 | 0.00 | 0.00 | 0.00 | 54 | 1002.0 |
| 20260504025406 | 14 | 246 | 0.0 | 0.0 | 0.00 | 0.00 | 0.00 | 53 | 1002.1 |
| 20260504024905 | 14 | 60 | 0.0 | 3.2 | 0.00 | 0.00 | 0.00 | 53 | 1002.1 |
| 20260504024404 | 14 | 282 | 0.0 | 3.2 | 0.00 | 0.00 | 0.00 | 54 | 1002.1 |
| 20260504023903 | 14 | 72 | 0.0 | 3.2 | 0.00 | 0.00 | 0.00 | 53 | 1002.1 |
| 20260504023403 | 14 | 30 | 0.0 | 3.2 | 0.00 | 0.00 | 0.00 | 53 | 1002.1 |
| 20260504022901 | 14 | 60 | 0.0 | 3.2 | 0.00 | 0.00 | 0.00 | 53 | 1002.1 |
| 20260504022401 | 14 | 37 | 0.0 | 0.0 | 0.00 | 0.00 | 0.00 | 53 | 1002.1 |
| 20260504021859 | 14 | 36 | 0.0 | 3.2 | 0.00 | 0.00 | 0.00 | 52 | 1002.1 |
| 20260504021359 | 14 | 37 | 0.0 | 0.0 | 0.00 | 0.00 | 0.00 | 52 | 1002.1 |
| 20260504020858 | 15 | 38 | 0.0 | 0.0 | 0.00 | 0.00 | 0.00 | 52 | 1002.2 |
| 20260504020358 | 15 | 354 | 0.0 | 1.6 | 0.00 | 0.00 | 0.00 | 51 | 1002.2 |
| 20260504015856 | 15 | 354 | 0.0 | 1.6 | 0.00 | 0.00 | 0.00 | 52 | 1002.2 |
| 20260504015355 | 15 | 264 | 0.0 | 1.6 | 0.00 | 0.00 | 0.00 | 50 | 1002.3 |
| 20260504014854 | 15 | 258 | 0.0 | 3.2 | 0.00 | 0.00 | 0.00 | 50 | 1002.3 |
| 20260504014353 | 15 | 60 | 0.0 | 0.0 | 0.00 | 0.00 | 0.00 | 49 | 1002.2 |
| 20260504013852 | 15 | 284 | 0.0 | 0.0 | 0.00 | 0.00 | 0.00 | 49 | 1002.3 |
| 20260504013351 | 15 | 83 | 0.0 | 3.2 | 0.00 | 0.00 | 0.00 | 48 | 1002.2 |
| 20260504012850 | 16 | 270 | 0.0 | 3.2 | 0.00 | 0.00 | 0.00 | 48 | 1002.2 |
| 20260504012349 | 16 | 348 | 0.0 | 3.2 | 0.00 | 0.00 | 0.00 | 47 | 1002.2 |
| 20260504011848 | 16 | 264 | 0.0 | 3.2 | 0.00 | 0.00 | 0.00 | 47 | 1002.2 |
| 20260504011347 | 15 | 252 | 0.0 | 3.2 | 0.00 | 0.00 | 0.00 | 48 | 1002.1 |
| 20260504010846 | 15 | 18 | 0.0 | 1.6 | 0.00 | 0.00 | 0.00 | 48 | 1002.1 |
| 20260504010345 | 15 | 270 | 0.0 | 0.0 | 0.00 | 0.00 | 0.00 | 49 | 1002.1 |
| 20260504005844 | 16 | 269 | 0.0 | 0.0 | 0.00 | 0.00 | 0.00 | 47 | 1002.0 |
| 20260504005343 | 16 | 261 | 0.0 | 1.6 | 0.00 | 0.00 | 0.00 | 47 | 1002.0 |
| 20260504004843 | 16 | 286 | 0.0 | 0.0 | 0.00 | 0.00 | 0.00 | 48 | 1002.0 |
| 20260504004342 | 16 | 252 | 0.0 | 3.2 | 0.00 | 0.00 | 0.00 | 48 | 1002.0 |
| 20260504003841 | 16 | 278 | 1.6 | 3.2 | 0.00 | 0.00 | 0.00 | 48 | 1002.0 |
| 20260504003340 | 16 | 336 | 0.0 | 3.2 | 0.00 | 0.00 | 0.00 | 47 | 1001.9 |
| 20260504002839 | 16 | 306 | 1.6 | 4.8 | 0.00 | 0.00 | 0.00 | 47 | 1001.9 |
| 20260504002338 | 16 | 72 | 1.6 | 4.8 | 0.00 | 0.00 | 0.00 | 46 | 1001.9 |
| 20260504001837 | 16 | 324 | 3.2 | 4.8 | 0.00 | 0.00 | 0.00 | 46 | 1001.9 |
| 20260504001336 | 16 | 266 | 0.0 | 3.2 | 0.00 | 0.00 | 0.00 | 45 | 1002.0 |
| 20260504000835 | 17 | 358 | 0.0 | 4.8 | 0.00 | 0.00 | 0.00 | 45 | 1001.9 |
| 20260504000334 | 17 | 324 | 0.0 | 0.0 | 0.00 | 0.00 | 0.00 | 45 | 1002.0 |
| 20260503235833 | 17 | 294 | 1.6 | 4.8 | 0.00 | 0.00 | 0.00 | 44 | 1002.0 |
| 20260503235332 | 17 | 144 | 0.0 | 3.2 | 0.00 | 0.00 | 0.00 | 43 | 1002.0 |
| 20260503234831 | 17 | 246 | 0.0 | 1.6 | 0.00 | 0.00 | 0.00 | 42 | 1001.9 |
| 20260503234330 | 17 | 138 | 0.0 | 3.2 | 0.00 | 0.00 | 0.00 | 42 | 1001.9 |
| 20260503233829 | 18 | 275 | 0.0 | 3.2 | 0.00 | 0.00 | 0.00 | 42 | 1002.0 |
| 20260503233329 | 17 | 280 | 1.6 | 3.2 | 0.00 | 0.00 | 0.00 | 42 | 1002.0 |
| 20260503232828 | 18 | 102 | 1.6 | 4.8 | 0.00 | 0.00 | 0.00 | 42 | 1002.0 |
| 20260503232326 | 18 | 218 | 1.6 | 3.2 | 0.00 | 0.00 | 0.00 | 42 | 1002.0 |
| 20260503231826 | 18 | 275 | 1.6 | 4.8 | 0.00 | 0.00 | 0.00 | 41 | 1002.0 |
| 20260503231325 | 18 | 48 | 1.6 | 4.8 | 0.00 | 0.00 | 0.00 | 41 | 1002.0 |
| 20260503230824 | 18 | 42 | 1.6 | 3.2 | 0.00 | 0.00 | 0.00 | 41 | 1001.9 |
| 20260503230323 | 18 | 166 | 1.6 | 4.8 | 0.00 | 0.00 | 0.00 | 40 | 1002.0 |
| 20260503225822 | 18 | 342 | 1.6 | 8.0 | 0.00 | 0.00 | 0.00 | 40 | 1002.0 |
| 20260503225321 | 18 | 287 | 3.2 | 11.3 | 0.00 | 0.00 | 0.00 | 40 | 1002.0 |
| 20260503224820 | 18 | 279 | 1.6 | 6.4 | 0.00 | 0.00 | 0.00 | 40 | 1001.9 |
| 20260503224319 | 18 | 334 | 3.2 | 8.0 | 0.00 | 0.00 | 0.00 | 39 | 1001.9 |
| 20260503223819 | 18 | 242 | 1.6 | 6.4 | 0.00 | 0.00 | 0.00 | 40 | 1002.0 |
| 20260503223318 | 18 | 72 | 1.6 | 6.4 | 0.00 | 0.00 | 0.00 | 40 | 1001.9 |
| 20260503222817 | 18 | 144 | 3.2 | 4.8 | 0.00 | 0.00 | 0.00 | 39 | 1001.9 |
| 20260503222315 | 18 | 261 | 3.2 | 6.4 | 0.00 | 0.00 | 0.00 | 39 | 1001.9 |
| 20260503221815 | 18 | 253 | 3.2 | 6.4 | 0.00 | 0.00 | 0.00 | 40 | 1002.0 |
| 20260503221314 | 18 | 276 | 3.2 | 6.4 | 0.00 | 0.00 | 0.00 | 40 | 1002.0 |
| 20260503220813 | 18 | 32 | 3.2 | 6.4 | 0.00 | 0.00 | 0.00 | 39 | 1002.0 |
| 20260503220312 | 18 | 6 | 3.2 | 6.4 | 0.00 | 0.00 | 0.00 | 39 | 1002.0 |
| 20260503215811 | 19 | 129 | 1.6 | 3.2 | 0.00 | 0.00 | 0.00 | 39 | 1002.1 |
| 20260503215310 | 19 | 263 | 1.6 | 8.0 | 0.00 | 0.00 | 0.00 | 39 | 1002.1 |